{"data":{"norad_id":64121,"intl_designator":"2025-110AB","name":"STARLINK-34189","alt_names":[],"object_type":"PAYLOAD","status":"ACTIVE","operator":null,"country":"US","launch_date":"2025-05-23","launch_site_code":"AFWTR","launch_vehicle":null,"mission":null,"orbit_class":"UNKNOWN","rcs_meters":null,"size_class":null,"mass_kg":null,"dimensions":null,"purposes":["comms"],"wikipedia_slug":null,"has_3d_model":false,"image_url":null,"decayed_at":null,"tle_current":{"epoch":"2026-09-20T12:35:22.861824Z","epoch_age_seconds":138307,"freshness":"FRESH","line1":"1 64121U 25110AB  26263.52457016  .00007908  00000+0  26618-3 0  9991","line2":"2 64121  53.1565 201.6896 0002409  69.7233 290.4027 15.31719383 75713","mean_motion":15.31719383,"eccentricity":0.0002409,"inclination_deg":53.1565,"raan_deg":201.6896,"arg_perigee_deg":69.7233,"mean_anomaly_deg":290.4027,"bstar":0.00026618,"rev_number":7571,"period_min":94.011998279975,"perigee_km":469.0323355714,"apogee_km":472.33209666973,"semimajor_km":6848.8192161206,"source":"CELESTRAK","updated_at":"2026-09-21T09:00:35.231875Z"}}}